Date String (YYYY-MM-DD hh:mm:ss) UTC,Instrument flags,Ambient pressure (hPa),Sample flow (lpm),Bypass flow (lpm),Sample temperature (°C),Ambient temperature (°C),ASC tube jacket temperature (°C),LED temperature (°C),Box temperature (°C),Sample RH (%),Span deviation,Mass concentration (μg/m³),Mass concentration (μg/m³),Mass concentration (μg/m³)
DateTimeUTC,F1_M11,P_M11,Q1_M11,Q2_M11,T1_M11,T2_M11,T3_M11,T4_M11,T5_M11,U1_M11,ZSPAN_M11,X0_M11,X2_M11,X1_M11
2022-06-04 02:00:00,,0821.9,5.00,0.00,29.5,27.7,00.0,38.4,31.3,21.3,0000.0,0004.42,0002.87,0002.15
2022-06-04 02:01:00,,0821.8,5.00,0.00,29.5,27.8,00.0,38.4,31.3,21.5,0000.0,0004.60,0002.95,0002.19
2022-06-04 02:02:00,,0821.8,5.02,0.00,29.5,28.0,00.0,38.4,31.4,21.5,0000.0,0004.67,0003.01,0002.23
2022-06-04 02:03:00,,0821.9,5.00,0.00,29.5,28.1,00.0,38.4,31.4,21.3,0000.0,0004.79,0003.07,0002.27
2022-06-04 02:04:00,,0821.8,5.00,0.00,29.6,28.3,00.0,38.4,31.5,21.2,0000.0,0004.99,0003.14,0002.30
2022-06-04 02:05:00,,0821.7,5.00,0.00,29.6,28.4,00.0,38.4,31.5,21.3,0000.0,0005.06,0003.17,0002.35
2022-06-04 02:06:00,,0821.9,4.99,0.00,29.6,28.5,00.0,38.4,31.5,21.3,0000.0,0005.06,0003.18,0002.39
2022-06-04 02:07:00,,0821.8,5.00,0.00,29.6,28.6,00.0,38.4,31.6,21.3,0000.0,0005.11,0003.20,0002.43
2022-06-04 02:08:00,,0822.1,5.00,0.00,29.7,28.7,00.0,38.5,31.6,21.3,0000.0,0006.05,0003.22,0002.46
2022-06-04 02:09:00,,0822.1,5.00,0.00,29.6,28.6,00.0,38.5,31.4,21.3,0000.0,0006.10,0003.25,0002.47
2022-06-04 02:10:00,,0822.1,4.99,0.00,29.5,28.4,00.0,38.5,31.2,21.5,0000.0,0006.22,0003.27,0002.49
2022-06-04 02:11:00,,0821.9,5.00,0.00,29.4,28.2,00.0,38.4,31.0,21.6,0000.0,0006.34,0003.27,0002.51
2022-06-04 02:12:00,,0822.1,5.00,0.00,29.3,28.1,00.0,38.4,31.1,21.8,0000.0,0007.20,0003.27,0002.51
2022-06-04 02:13:00,,0821.8,5.01,0.00,29.3,28.1,00.0,38.4,31.1,21.8,0000.0,0007.56,0003.26,0002.53
2022-06-04 02:14:00,,0821.8,5.00,0.00,29.3,28.2,00.0,38.4,31.2,21.7,0000.0,0007.73,0003.26,0002.54
2022-06-04 02:15:00,,0821.7,5.00,0.00,29.4,28.2,00.0,38.4,31.2,21.7,0000.0,0007.64,0003.24,0002.55
2022-06-04 02:16:00,,0821.8,4.99,0.00,29.4,28.3,00.0,38.4,31.3,21.7,0000.0,0007.72,0003.25,0002.56
2022-06-04 02:17:00,,0821.8,5.00,0.00,29.4,28.4,00.0,38.4,31.3,21.6,0000.0,0007.89,0003.30,0002.56
2022-06-04 02:18:00,,0821.8,5.02,0.00,29.4,28.4,00.0,38.4,31.3,21.5,0000.0,0007.93,0003.31,0002.55
2022-06-04 02:19:00,,0821.8,5.00,0.00,29.4,28.5,00.0,38.4,31.3,21.4,0000.0,0007.53,0003.32,0002.56
2022-06-04 02:20:00,,0821.8,5.00,0.00,29.5,28.5,00.0,38.4,31.4,21.0,0000.0,0007.57,0003.31,0002.56
2022-06-04 02:21:00,,0821.8,4.99,0.00,29.5,28.6,00.0,38.4,31.4,21.3,0000.0,0008.04,0003.31,0002.57
2022-06-04 02:22:00,,0821.8,5.00,0.00,29.5,28.6,00.0,38.4,31.4,21.4,0000.0,0007.99,0003.31,0002.55
2022-06-04 02:23:00,,0821.8,5.01,0.00,29.5,28.6,00.0,38.5,31.4,21.4,0000.0,0007.60,0003.32,0002.57
2022-06-04 02:24:00,,0821.8,5.00,0.00,29.5,28.5,00.0,38.4,31.4,21.3,0000.0,0007.29,0003.34,0002.58
2022-06-04 02:25:00,,0821.8,4.99,0.00,29.5,27.6,00.0,38.3,31.2,21.5,0000.0,0007.13,0003.36,0002.60
2022-06-04 02:26:00,,0821.8,5.01,0.00,29.4,27.2,00.0,38.3,31.1,21.7,0000.0,0007.40,0003.42,0002.62
2022-06-04 02:27:00,,0821.8,5.01,0.00,29.3,27.2,00.0,38.3,31.0,21.7,0000.0,0007.35,0003.42,0002.64
2022-06-04 02:28:00,,0821.9,4.99,0.00,29.3,27.3,00.0,38.3,31.0,21.8,0000.0,0007.28,0003.41,0002.65
2022-06-04 02:29:00,,0821.8,5.01,0.00,29.3,27.4,00.0,38.3,31.0,21.4,0000.0,0007.21,0003.41,0002.66
2022-06-04 02:30:00,,0821.8,4.99,0.00,29.3,27.6,00.0,38.2,31.1,21.6,0000.0,0007.12,0003.38,0002.65
2022-06-04 02:31:00,,0821.8,5.01,0.00,29.3,27.7,00.0,38.2,31.1,21.6,0000.0,0007.22,0003.40,0002.65
2022-06-04 02:32:00,,0821.8,5.00,0.00,29.3,27.9,00.0,38.2,31.2,21.9,0000.0,0006.07,0003.39,0002.65
2022-06-04 02:33:00,,0821.8,4.99,0.00,29.3,28.0,00.0,38.2,31.2,22.2,0000.0,0005.94,0003.37,0002.64
2022-06-04 02:34:00,,0821.8,5.01,0.00,29.3,28.2,00.0,38.2,31.3,21.9,0000.0,0005.86,0003.34,0002.62
2022-06-04 02:35:00,,0821.8,5.00,0.00,29.4,28.3,00.0,38.3,31.3,22.0,0000.0,0005.92,0003.33,0002.60
2022-06-04 02:36:00,,0821.7,4.99,0.00,29.4,28.4,00.0,38.3,31.3,22.0,0000.0,0006.11,0003.32,0002.58
2022-06-04 02:37:00,,0821.9,5.00,0.00,29.4,28.4,00.0,38.3,31.3,23.3,0000.0,0006.15,0003.28,0002.55
2022-06-04 02:38:00,,0821.8,5.02,0.00,29.4,28.5,00.0,38.3,31.4,23.8,0000.0,0006.14,0003.26,0002.51
2022-06-04 02:39:00,,0821.8,5.00,0.00,29.5,28.5,00.0,38.3,31.4,23.5,0000.0,0005.94,0003.21,0002.46
2022-06-04 02:40:00,,0821.8,4.99,0.00,29.5,28.6,00.0,38.3,31.4,23.3,0000.0,0005.88,0003.18,0002.43
2022-06-04 02:41:00,,0821.8,5.00,0.00,29.5,28.7,00.0,38.3,31.5,23.2,0000.0,0005.78,0003.16,0002.41
2022-06-04 02:42:00,,0821.9,5.01,0.00,29.6,28.8,00.0,38.4,31.5,23.5,0000.0,0005.59,0003.12,0002.39
2022-06-04 02:43:00,,0821.9,4.99,0.00,29.6,28.8,00.0,38.4,31.6,23.3,0000.0,0005.69,0003.12,0002.37
2022-06-04 02:44:00,,0821.9,5.00,0.00,29.6,28.9,00.0,38.4,31.6,22.9,0000.0,0006.40,0003.13,0002.36
2022-06-04 02:45:00,,0821.9,5.00,0.00,29.7,28.9,00.0,38.4,31.6,22.2,0000.0,0007.44,0003.15,0002.36
2022-06-04 02:46:00,,0822.0,5.00,0.00,29.7,29.0,00.0,38.4,31.7,22.3,0000.0,0007.56,0003.16,0002.36
2022-06-04 02:47:00,,0822.1,4.99,0.00,29.7,29.0,00.0,38.5,31.7,22.2,0000.0,0007.54,0003.17,0002.36
2022-06-04 02:48:00,,0822.1,5.01,0.00,29.8,29.1,00.0,38.5,31.7,22.4,0000.0,0007.31,0003.19,0002.36
2022-06-04 02:49:00,,0822.1,4.99,0.00,29.8,28.9,00.0,38.5,31.7,22.3,0000.0,0007.53,0003.18,0002.36
2022-06-04 02:50:00,,0822.0,4.99,0.00,29.7,28.0,00.0,38.4,31.5,22.1,0000.0,0007.73,0003.22,0002.39
2022-06-04 02:51:00,,0822.1,4.99,0.00,29.7,27.5,00.0,38.4,31.3,22.3,0000.0,0007.78,0003.23,0002.40
2022-06-04 02:52:00,,0822.1,5.01,0.00,29.6,27.4,00.0,38.4,31.3,22.2,0000.0,0007.76,0003.21,0002.41
2022-06-04 02:53:00,,0822.1,5.00,0.00,29.5,27.4,00.0,38.4,31.2,22.2,0000.0,0007.85,0003.24,0002.43
2022-06-04 02:54:00,,0822.1,5.00,0.00,29.5,27.5,00.0,38.4,31.3,22.1,0000.0,0007.95,0003.26,0002.45
2022-06-04 02:55:00,,0822.1,5.01,0.00,29.5,27.7,00.0,38.4,31.3,21.8,0000.0,0008.01,0003.29,0002.47
2022-06-04 02:56:00,,0822.1,5.01,0.00,29.5,27.8,00.0,38.4,31.3,21.7,0000.0,0006.87,0003.28,0002.49
2022-06-04 02:57:00,,0822.1,4.99,0.00,29.5,28.0,00.0,38.4,31.3,21.7,0000.0,0006.77,0003.30,0002.50
2022-06-04 02:58:00,,0822.2,5.00,0.00,29.5,28.1,00.0,38.4,31.4,21.8,0000.0,0006.86,0003.29,0002.52
2022-06-04 02:59:00,,0822.2,4.99,0.00,29.5,28.2,00.0,38.4,31.4,21.8,0000.0,0007.39,0003.29,0002.54
